Weather reports worldwide

Advertisment
Ulm-Maehringen, Germany (10840): temperature & dewpoint: 10.11.2018 05:00:00 - 16.11.2018 05:00:00 (CET)Ulm-Maehringen, Germany (10840): temperature 5cm & temperature -5cm: 10.11.2018 05:00:00 - 16.11.2018 05:00:00 (CET)Ulm-Maehringen, Germany (10840): temperature -20cm & temperature -100cm: 10.11.2018 05:00:00 - 16.11.2018 05:00:00 (CET)Ulm-Maehringen, Germany (10840): wind speed & gusts: 10.11.2018 05:00:00 - 16.11.2018 05:00:00 (CET)Ulm-Maehringen, Germany (10840): wind direction: 10.11.2018 05:00:00 - 16.11.2018 05:00:00 (CET)Ulm-Maehringen, Germany (10840): reduced air pressure: 10.11.2018 05:00:00 - 16.11.2018 05:00:00 (CET)Ulm-Maehringen, Germany (10840): visibility: 10.11.2018 05:00:00 - 16.11.2018 05:00:00 (CET)Ulm-Maehringen, Germany (10840): sunshine duration: 10.11.2018 05:00:00 - 16.11.2018 05:00:00 (CET)Ulm-Maehringen, Germany (10840): precipitation: 10.11.2018 05:00:00 - 16.11.2018 05:00:00 (CET)
Date & Time tt [°C] td [°C] tt 5cm [°C] tt -5cm [°C] tt -20cm [°C] tt -100cm [°C] ff [km/h] ff [kn] fx [km/h] fx [kn] dd ppp [hPa] vv [km] sd [min] rr [mm]
16.11.2018 05:00:00 3,0 2,9 3,2 4,1 5,7 10,1 16 8 24 13 ENE 1028,6 2,7 0 0,0
16.11.2018 04:00:00 3,2 2,5 3,4 4,2 5,7 10,1 16 9 25 14 E 1028,7 6 0 0,0
16.11.2018 03:00:00 3,5 3,1 3,6 4,2 5,8 10,1 13 7 29 15 E 1028,7 5 0 0,0
16.11.2018 02:00:00 3,5 3,0 3,7 4,2 5,8 10,1 15 8 23 12 E 1029,0 6 0 0,0
16.11.2018 01:00:00 3,4 3,2 3,6 4,3 5,8 10,1 12 7 17 9 E 1029,1 6 0 0,0
16.11.2018 00:00:00 3,2 3,0 3,4 4,3 5,9 10,1 8 5 14 8 E 1029,1 7 0 0,0
15.11.2018 23:00:00 2,9 2,8 3,2 4,3 5,9 10,1 4 2 11 6 E 1028,7 8 0 0,0
15.11.2018 22:00:00 2,8 2,7 3,1 4,4 6,0 10,1 8 5 20 11 E 1028,8 9 0 0,0
15.11.2018 21:00:00 3,1 3,1 3,3 4,6 6,0 10,1 11 6 19 10 E 1028,8 6 0 0,0
15.11.2018 20:00:00 3,4 3,4 3,6 4,7 6,0 10,1 10 5 17 9 ESE 1028,7 2,8 0 0,0
15.11.2018 19:00:00 3,2 3,2 3,5 4,8 6,1 10,1 10 5 16 9 E 1028,8 1,6 0 0,0
15.11.2018 18:00:00 3,1 3,1 3,4 5,0 6,1 10,1 10 5 16 9 ESE 1028,5 1,1 0 0,0
15.11.2018 17:00:00 3,4 3,4 3,6 5,2 6,1 10,1 11 6 17 9 E 1028,2 0,3 0 0,0
15.11.2018 16:00:00 3,4 3,4 3,9 5,5 6,0 10,2 6 4 12 6 SE 1028,2 0,4 0 0,0
15.11.2018 15:00:00 3,3 3,3 3,9 5,6 6,0 10,2 6 3 14 7 E 1028,3 0,2 0 0,0
15.11.2018 14:00:00 3,2 3,2 4,0 5,6 5,9 10,2 5 3 14 7 E 1028,4 0,2 0 0,0
15.11.2018 13:00:00 3,2 3,2 3,9 5,6 5,8 10,2 8 4 14 7 ESE 1028,8 0,2 0 0,0
15.11.2018 12:00:00 3,1 3,1 3,9 5,3 5,8 10,2 6 3 11 6 SE 1029,0 0,2 0 0,0
15.11.2018 11:00:00 3,1 3,1 3,9 4,9 5,8 10,2 7 4 14 8 SSW 1029,3 0,2 0 0,0
15.11.2018 10:00:00 3,0 3,0 3,7 4,6 5,8 10,2 8 4 16 8 S 1029,2 0,2 0 0,0
15.11.2018 09:00:00 2,7 2,7 3,2 4,3 5,8 10,2 6 3 9 5 S 1029,5 0,1 0 0,0
15.11.2018 08:00:00 2,4 2,4 2,7 4,2 5,9 10,2 5 3 12 6 SSE 1029,3 0,1 0 0,0
15.11.2018 07:00:00 2,3 2,3 2,6 4,3 5,9 10,2 5 3 11 6 S 1029,3 0,1 0 0,0
15.11.2018 06:00:00 2,7 2,7 3,0 4,3 6,0 10,2 5 3 10 6 SSE 1029,2 0,1 0 0,0
15.11.2018 05:00:00 2,5 2,5 2,8 4,4 6,0 10,2 5 3 14 8 SE 1029,3 0,2 0 0,1
15.11.2018 04:00:00 2,7 2,7 3,1 4,5 6,1 10,2 6 3 11 6 E 1029,2 0,1 0 0,0
15.11.2018 03:00:00 2,7 2,7 3,0 4,6 6,1 10,2 8 4 11 6 E 1029,3 0,1 0 0,0
15.11.2018 02:00:00 2,8 2,8 3,1 4,7 6,1 10,2 8 5 12 7 ENE 1029,6 0,1 0 0,0
15.11.2018 01:00:00 2,8 2,8 3,1 4,8 6,2 10,2 6 4 14 8 E 1029,8 0,1 0 0,0
15.11.2018 00:00:00 3,3 3,3 3,5 4,9 6,2 10,2 10 6 14 8 E 1029,9 0,1 0 0,0
14.11.2018 23:00:00 3,6 3,6 3,9 5,1 6,2 10,3 7 4 11 6 E 1030,1 0,1 0 0,0
14.11.2018 22:00:00 3,9 3,9 4,1 5,1 6,2 10,3 7 4 14 8 ESE 1030,0 0,1 0 0,0
14.11.2018 21:00:00 3,9 3,9 4,1 5,2 6,2 10,3 9 5 13 7 E 1030,5 0,1 0 0,0
14.11.2018 20:00:00 3,9 3,9 4,2 5,4 6,2 10,3 9 5 14 8 E 1030,5 0,1 0 0,0
14.11.2018 19:00:00 4,3 4,3 4,6 5,5 6,2 10,3 9 5 13 7 E 1030,4 0,1 0 0,0
14.11.2018 18:00:00 4,3 4,3 4,6 5,7 6,2 10,3 8 4 12 6 E 1030,1 0,1 0 0,0
14.11.2018 17:00:00 4,2 4,2 4,5 6,0 6,1 10,3 10 5 15 8 E 1030,7 0,2 0 0,0
14.11.2018 16:00:00 4,4 4,4 4,9 6,4 5,9 10,3 9 5 14 8 ENE 1030,6 0,4 0 0,0
14.11.2018 15:00:00 4,6 4,6 5,4 6,9 5,7 10,3 10 5 16 9 ENE 1030,4 0,5 0 0,0
14.11.2018 14:00:00 4,7 4,7 5,9 6,8 5,4 10,3 8 4 16 8 ENE 1030,6 0,9 0 0,0
14.11.2018 13:00:00 4,4 4,4 5,9 6,7 5,2 10,3 10 5 15 8 ENE 1031,1 1,3 0 0,0
14.11.2018 12:00:00 4,4 4,4 6,4 5,7 5,0 10,3 8 4 12 7 ENE 1031,4 1,2 0 0,0
14.11.2018 11:00:00 2,6 2,6 3,8 4,2 5,0 10,3 6 3 10 5 E 1032,5 0,4 0 0,0
14.11.2018 10:00:00 1,2 1,2 2,4 2,6 5,1 10,3 0 0 4 2 N 1033,1 0,2 0 0,0
14.11.2018 09:00:00 -0,3 -0,3 0,1 1,5 5,2 10,3 2 1 5 3 NNE 1033,6 1,2 0 0,0
14.11.2018 08:00:00 -1,0 -1,0 -1,2 1,5 5,4 10,3 3 2 6 3 WNW 1034,1 0,5 0 0,0
14.11.2018 07:00:00 -0,8 -0,8 -0,6 1,6 5,5 10,3 0 0 5 3 N 1034,1 0,1 0 0,0
14.11.2018 06:00:00 -1,2 -1,3 -1,8 1,7 5,7 10,3 2 1 4 2 W 1034,2 8 0 0,0
14.11.2018 05:00:00 -1,4 -1,4 -2,8 1,8 5,9 10,3 3 2 5 3 WSW 1034,5 1,4 0 0,0
14.11.2018 04:00:00 -1,0 -1,0 -1,3 2,0 6,1 10,3 0 0 7 4 N 1034,5 0,1 0 0,0
14.11.2018 03:00:00 -0,8 -0,8 -1,4 2,1 6,4 10,3 7 4 10 5 S 1034,6 0,1 0 0,0
14.11.2018 02:00:00 -0,2 -0,2 -1,6 2,4 6,6 10,3 3 2 8 5 W 1034,5 0,2 0 0,0
14.11.2018 01:00:00 -0,1 -0,1 -1,1 3,1 6,8 10,3 4 2 8 4 NNE 1034,7 0,7 0 0,0
14.11.2018 00:00:00 1,7 1,7 -0,2 3,8 6,9 10,3 5 3 9 5 SW 1034,4 0,5 0 0,0
13.11.2018 23:00:00 3,5 3,5 1,9 4,7 7,0 10,3 6 3 8 4 W 1034,0 0,2 0 0,0
13.11.2018 22:00:00 5,3 5,3 4,7 5,4 7,1 10,3 5 3 13 7 NW 1033,5 0,2 0 0,0
13.11.2018 21:00:00 6,1 6,1 5,9 5,4 7,2 10,3 6 3 14 7 W 1032,9 3,0 0 0,0
13.11.2018 20:00:00 6,7 6,7 6,1 5,2 7,3 10,3 9 5 19 10 WSW 1032,6 4,3 0 0,0
13.11.2018 19:00:00 6,9 6,9 5,3 5,3 7,4 10,3 13 7 17 9 SSW 1032,2 6 0 0,0
13.11.2018 18:00:00 6,8 6,8 2,7 6,2 7,4 10,3 4 2 11 6 S 1032,0 15 0 0,0
13.11.2018 17:00:00 8,6 7,5 6,8 7,5 7,3 10,4 9 5 18 10 SW 1031,1 55 2 0,0
13.11.2018 16:00:00 9,3 7,9 9,2 8,0 7,1 10,4 10 5 19 11 SW 1030,4 70 4 0,0
13.11.2018 15:00:00 8,9 7,9 8,5 7,8 7,0 10,4 10 5 18 10 SW 1029,8 70 0 0,0
13.11.2018 14:00:00 8,8 7,6 8,4 7,7 6,8 10,4 9 5 21 12 SW 1029,5 70 0 0,0
13.11.2018 13:00:00 8,9 7,6 8,4 7,6 6,7 10,4 12 6 19 10 SW 1028,6 70 0 0,0
13.11.2018 12:00:00 8,8 7,5 8,4 7,0 6,6 10,4 9 5 16 9 SSW 1028,5 46 0 0,2
13.11.2018 11:00:00 9,0 7,0 8,3 6,5 6,5 10,4 10 6 23 12 WSW 1028,4 70 0 0,0
13.11.2018 10:00:00 9,0 7,8 8,3 6,0 6,4 10,4 9 5 19 10 W 1027,6 70 0 0,0
13.11.2018 09:00:00 8,9 8,5 8,3 5,3 6,4 10,4 8 4 14 7 WNW 1026,6 46 0 0,4
13.11.2018 08:00:00 8,1 8,1 7,4 4,2 6,5 10,4 7 4 11 6 WNW 1025,7 22 0 0,0
13.11.2018 07:00:00 4,1 4,1 2,9 4,2 6,6 10,4 4 2 6 3 WNW 1025,5 4,1 0 0,0
13.11.2018 06:00:00 4,4 4,4 3,9 3,9 6,7 10,4 3 2 4 2 SW 1024,8 12 0 0,0
13.11.2018 05:00:00 3,8 3,8 1,4 3,9 6,9 10,4 4 2 6 3 W 1024,3 4,8 0 0,0
13.11.2018 04:00:00 4,7 4,7 2,8 4,1 7,0 10,4 2 1 13 7 WNW 1023,9 8 0 0,0
13.11.2018 03:00:00 4,6 4,6 2,2 4,1 7,2 10,4 3 2 5 3 SW 1023,6 0,5 0 0,0
13.11.2018 02:00:00 4,0 4,0 2,3 4,3 7,3 10,4 4 2 9 5 WNW 1023,7 2,0 0 0,0
13.11.2018 01:00:00 4,0 4,0 2,9 4,4 7,5 10,4 4 2 8 4 W 1023,7 0,8 0 0,0
13.11.2018 00:00:00 4,3 4,3 2,0 4,5 7,8 10,4 3 2 6 3 WSW 1023,9 1,7 0 0,0
12.11.2018 23:00:00 4,7 4,7 1,4 4,8 8,0 10,4 4 2 5 3 W 1023,7 0,2 0 0,0
12.11.2018 22:00:00 5,3 5,3 1,6 5,3 8,2 10,4 3 1 4 2 W 1023,6 0,2 0 0,0
12.11.2018 21:00:00 5,8 5,8 2,2 5,8 8,3 10,4 3 1 4 2 SSW 1023,4 0,2 0 0,0
12.11.2018 20:00:00 6,5 6,5 2,7 6,5 8,5 10,4 0 0 7 4 N 1023,0 3,3 0 0,0
12.11.2018 19:00:00 6,2 6,1 4,4 7,4 8,5 10,4 3 2 8 4 W 1022,8 3,5 0 0,0
12.11.2018 18:00:00 7,6 7,1 4,7 8,3 8,5 10,4 3 2 9 5 WSW 1021,7 9 0 0,0
12.11.2018 17:00:00 9,4 7,9 5,9 9,8 8,3 10,4 4 2 11 6 SSE 1020,4 14 2 0,0
12.11.2018 16:00:00 10,6 8,0 10,3 11,0 8,0 10,4 6 4 11 6 SSW 1019,8 17 4 0,0
12.11.2018 15:00:00 11,9 8,5 13,1 11,7 7,6 10,4 5 3 11 6 E 1018,9 18 34 0,0
12.11.2018 14:00:00 11,2 8,4 11,6 12,0 7,1 10,4 8 4 14 8 S 1019,0 14 28 0,0
12.11.2018 13:00:00 13,4 9,1 15,4 11,9 6,7 10,4 3 2 10 5 S 1018,1 43 56 0,0
12.11.2018 12:00:00 10,2 7,9 11,7 10,0 6,4 10,4 5 3 8 4 SE 1019,0 28 24 0,0
12.11.2018 11:00:00 8,5 7,0 12,3 7,8 6,3 10,4 2 1 6 4 E 1019,3 20 60 0,0
12.11.2018 10:00:00 4,9 4,9 6,7 5,2 6,3 10,4 6 4 8 5 NNE 1019,9 2,6 45 0,0
12.11.2018 09:00:00 3,0 3,0 4,0 3,5 6,4 10,4 3 1 7 4 SSE 1020,5 1,8 51 0,0
12.11.2018 08:00:00 1,9 1,9 0,7 3,1 6,5 10,4 3 2 8 4 NW 1020,6 0,6 0 0,0
12.11.2018 07:00:00 1,7 1,7 0,7 2,9 6,7 10,4 2 1 6 4 NE 1020,6 0,4 0 0,0
12.11.2018 06:00:00 1,9 1,9 0,2 2,9 6,9 10,4 4 2 6 3 NW 1020,3 3,4 0 0,0
12.11.2018 05:00:00 1,9 1,9 -0,5 3,2 7,1 10,4 3 2 8 4 WNW 1020,1 1,1 0 0,0
12.11.2018 04:00:00 2,5 2,5 1,0 3,4 7,3 10,4 3 2 8 4 NNW 1020,3 0,1 0 0,0
12.11.2018 03:00:00 3,6 3,6 0,7 3,6 7,5 10,4 4 2 10 5 SSW 1020,0 1,5 0 0,0
12.11.2018 02:00:00 4,0 4,0 1,9 3,9 7,7 10,4 5 3 7 4 NNW 1020,0 1,1 0 0,0
12.11.2018 01:00:00 3,8 3,8 1,5 4,3 8,0 10,4 4 2 10 5 WNW 1020,2 1,7 0 0,0
12.11.2018 00:00:00 3,5 3,5 1,8 4,7 8,2 10,4 4 2 6 3 WNW 1020,4 0,2 0 0,0
11.11.2018 23:00:00 3,9 3,9 0,8 5,0 8,4 10,4 4 2 8 4 W 1020,3 0,6 0 0,0
11.11.2018 22:00:00 4,5 4,5 1,7 5,5 8,6 10,4 3 2 6 4 SW 1019,6 0,5 0 0,0
11.11.2018 21:00:00 5,3 5,3 1,8 6,1 8,8 10,4 2 1 9 5 W 1019,1 0,1 0 0,0
11.11.2018 20:00:00 6,2 6,2 3,2 6,8 8,9 10,4 4 2 9 5 WNW 1018,1 0,2 0 0,0
11.11.2018 19:00:00 7,8 7,8 4,6 7,6 9,0 10,4 4 2 6 3 N 1017,2 3,1 0 0,0
11.11.2018 18:00:00 8,7 8,6 5,0 8,9 9,0 10,4 4 2 8 5 WNW 1016,3 1,4 0 0,0
11.11.2018 17:00:00 10,6 9,8 9,7 9,9 8,8 10,4 8 4 14 8 SSE 1015,2 17 0 0,0
11.11.2018 16:00:00 11,1 10,2 10,8 10,3 8,7 10,4 10 5 18 10 SSW 1015,5 17 2 0,0
11.11.2018 15:00:00 10,7 9,9 10,7 10,0 8,6 10,4 8 4 13 7 SSW 1015,4 13 0 0,0
11.11.2018 14:00:00 10,3 9,7 10,4 9,9 8,4 10,4 8 5 16 9 S 1015,2 12 0 0,0
11.11.2018 13:00:00 9,2 9,1 9,5 9,5 8,3 10,4 13 7 23 12 S 1015,5 6 0 0,0
11.11.2018 12:00:00 9,3 9,0 10,0 9,2 8,2 10,4 11 6 16 9 S 1015,1 6 0 0,0
11.11.2018 11:00:00 8,6 8,5 8,9 8,3 8,2 10,4 12 6 18 10 S 1015,5 7 0 0,1
11.11.2018 10:00:00 8,5 8,4 8,8 7,9 8,2 10,4 8 4 20 11 SSW 1015,3 7 0 0,3
11.11.2018 09:00:00 7,7 7,6 7,9 7,3 8,2 10,4 13 7 20 11 WSW 1015,3 5 0 0,2
11.11.2018 08:00:00 6,4 6,4 6,5 7,0 8,3 10,4 10 6 15 8 WSW 1014,2 2,7 0 0,1
11.11.2018 07:00:00 5,9 5,9 5,8 7,1 8,4 10,4 4 2 9 5 S 1013,4 0,2 0 0,0
11.11.2018 06:00:00 6,0 6,0 6,2 7,2 8,4 10,3 8 4 14 8 SSE 1013,4 0,4 0 0,2
11.11.2018 05:00:00 5,9 5,9 6,1 7,2 8,5 10,3 10 5 19 10 S 1013,3 0,3 0 0,3
11.11.2018 04:00:00 5,9 5,9 6,2 7,3 8,6 10,3 11 6 16 8 S 1013,0 0,2 0 0,1
11.11.2018 03:00:00 6,0 6,0 6,1 7,4 8,6 10,3 2 1 8 5 SSW 1013,2 0,3 0 0,0
11.11.2018 02:00:00 6,1 6,1 6,3 7,5 8,7 10,3 5 3 10 6 SSW 1012,9 0,2 0 0,1
11.11.2018 01:00:00 5,8 5,8 6,1 7,6 8,8 10,3 5 3 11 6 S 1012,4 0,1 0 0,1
11.11.2018 00:00:00 6,1 6,1 6,4 7,8 8,9 10,3 5 3 8 4 SE 1012,0 0,2 0 0,0
10.11.2018 23:00:00 6,0 6,0 6,3 7,9 9,0 10,3 2 1 12 7 SE 1012,0 0,2 0 0,0
10.11.2018 22:00:00 6,1 6,1 6,4 8,1 9,0 10,3 5 3 9 5 E 1011,7 0,5 0 0,0
10.11.2018 21:00:00 6,3 6,3 6,7 8,3 9,1 10,3 5 3 6 4 ENE 1011,9 1,5 0 0,0
10.11.2018 20:00:00 6,3 6,3 6,6 8,4 9,2 10,3 0 0 6 4 N 1012,1 0,7 0 0,0
10.11.2018 19:00:00 6,4 6,4 6,8 8,7 9,3 10,3 4 2 8 4 NE 1011,9 2,7 0 0,0
10.11.2018 18:00:00 6,5 6,5 6,8 9,1 9,3 10,3 6 3 10 5 E 1011,7 3,9 0 0,0
10.11.2018 17:00:00 7,1 6,8 7,4 9,5 9,3 10,3 7 4 14 8 ESE 1011,4 7 0 0,0
10.11.2018 16:00:00 7,7 7,0 7,6 10,8 9,1 10,3 11 6 14 8 E 1011,0 10 35 0,0
10.11.2018 15:00:00 8,7 7,0 10,7 12,1 8,8 10,3 9 5 13 7 E 1010,5 14 59 0,0
10.11.2018 14:00:00 9,1 7,1 10,5 12,6 8,5 10,3 8 4 15 8 SSE 1010,7 16 60 0,0
10.11.2018 13:00:00 9,2 7,0 11,7 12,0 8,3 10,3 8 4 14 8 E 1010,8 10 54 0,0
10.11.2018 12:00:00 7,9 7,1 10,1 9,9 8,2 10,3 4 2 8 5 ESE 1011,6 7 0 0,0
10.11.2018 11:00:00 6,8 6,6 8,5 8,8 8,1 10,3 3 2 9 5 SSE 1012,1 4,4 0 0,0
10.11.2018 10:00:00 6,4 6,4 7,5 8,2 8,1 10,3 9 5 13 7 E 1012,1 1,8 0 0,0
10.11.2018 09:00:00 6,3 6,3 7,0 7,6 8,1 10,3 7 4 10 5 SSE 1012,3 0,2 0 0,0
10.11.2018 08:00:00 6,2 6,2 6,5 7,3 8,1 10,3 6 3 12 7 SSE 1012,3 0,1 0 0,0
10.11.2018 07:00:00 6,4 6,4 6,6 7,3 8,2 10,3 7 4 10 5 SSE 1012,2 0,1 0 0,0
10.11.2018 06:00:00 6,4 6,4 6,6 7,3 8,2 10,3 6 3 11 6 SSW 1012,5 0,3 0 0,0
10.11.2018 05:00:00 6,4 6,4 6,6 7,4 8,3 10,3 9 5 14 7 SSE 1012,7 0,4 0 0,0

tt = temperature
td = dewpoint
tt 5cm = temperature 5cm
tt -5cm = temperature -5cm
tt -20cm = temperature -20cm
tt -100cm = temperature -100cm
ff = wind speed
fx = gusts
dd = wind direction
ppp = reduced air pressure
vv = visibility
sd = sunshine duration
rr = precipitation

Next stations